Wind_Speed
10 10 8 8 7 7 7 9 10 9 8 9 11 9 8 7 6 5 5 5 5 2 1 3 2 2 1 1 1 3 3 3 4 4 2 5 3 4 2 3 3 2 5 3 22
13 12 11 10 11 9 8 8 10 10 9 9 10 9 7 6 4 9 7 7 5 4 4 4 3 4 2 1 1 4 3 8 3 0 2 2 2 4 3 3 2 3 2 5 32
16 15 13 12 10 8 9 9 11 11 10 9 9 8 5 3 3 5 12 7 6 6 4 2 0 3 3 3 4 5 5 4 2 3 3 2 3 3 4 5 8 5 4 6 12
19 17 16 13 10 10 10 11 11 11 12 9 8 6 3 2 6 3 9 8 6 5 6 5 3 4 3 5 4 3 7 4 3 1 2 3 1 4 6 7 2 2 7 8 9
22 19 17 15 12 12 14 12 14 14 11 9 6 4 1 2 7 7 10 8 7 6 5 4 5 5 5 4 2 4 3 3 4 7 5 2 6 5 11 12 9 6 6 10 11
25 22 19 17 15 15 14 17 16 15 11 8 5 3 3 5 4 8 9 9 7 7 5 4 4 3 2 3 4 1 3 6 7 7 4 4 3 5 9 4 6 4 7 10 14
29 24 21 19 17 17 17 17 15 15 10 6 5 4 3 9 3 7 9 7 7 7 4 3 3 3 1 1 2 2 6 6 5 2 4 4 6 8 11 7 7 8 8 6 11
30 25 23 22 20 19 17 14 14 11 8 5 5 4 6 5 8 8 8 7 5 4 6 5 3 2 3 1 3 1 2 4 2 5 1 2 7 5 4 1 2 6 7 6 8
28 24 24 24 24 22 17 12 10 9 6 4 4 4 6 6 7 11 11 7 7 6 5 6 3 3 2 4 3 2 4 6 5 1 3 3 6 5 4 6 9 9 8 7 7
18 18 20 23 24 22 17 11 5 2 3 4 4 1 4 5 8 11 10 12 3 4 3 3 4 3 2 3 5 6 5 5 5 2 1 4 10 10 12 7 8 7 6 6 6
10 10 3 4 7 12 11 3 3 2 7 9 8 3 4 7 9 6 9 8 4 2 5 3 3 8 12 9 2 4 3 4 3 1 2 6 7 11 12 4 6 5 5 6 7
5 6 8 5 7 9 11 4 4 5 5 16 7 6 6 9 4 4 12 7 5 5 5 3 7 7 5 6 6 3 3 5 4 1 1 4 10 1 5 3 3 4 5 4 3
8 9 10 9 7 7 12 9 4 6 3 5 8 9 5 9 5 11 11 5 4 7 9 7 3 7 6 5 5 4 5 3 3 6 1 6 6 2 1 2 4 4 3 2 1
12 11 14 15 4 6 6 16 9 5 3 6 7 6 6 7 4 4 15 5 4 10 8 5 4 6 4 4 5 4 3 4 3 4 3 3 4 3 3 2 0 1 1 2 1
11 15 13 12 12 5 5 7 12 2 5 4 5 5 5 9 9 2 3 2 6 7 6 6 7 5 3 4 4 4 3 4 3 3 4 0 3 6 4 3 2 3 1 1 3
9 10 13 14 14 14 10 8 5 4 7 5 4 6 7 4 3 4 3 0 2 4 3 3 1 3 4 4 4 6 4 4 3 3 1 4 4 4 5 5 3 3 4 6 6
11 13 14 15 4 7 10 3 4 5 2 6 5 6 5 6 5 5 7 7 7 6 5 2 1 1 2 5 2 3 5 2 3 2 5 3 1 7 4 5 4 3 6 7 6
14 17 17 21 18 14 7 3 7 4 6 4 5 8 7 7 4 7 7 7 6 2 4 7 3 6 1 2 6 5 6 5 7 3 3 3 6 5 5 2 4 5 6 6 6
16 19 15 19 21 14 3 5 3 4 4 8 6 4 3 4 5 5 8 6 9 10 6 5 2 2 4 1 1 4 3 2 6 3 2 3 6 4 4 3 4 6 6 7 7
10 9 13 16 18 11 3 7 4 4 2 3 3 5 6 6 5 7 10 4 5 7 3 5 5 2 2 0 3 2 4 3 3 2 4 4 5 5 4 4 4 5 6 7 6
5 3 4 12 19 3 4 5 4 4 4 5 2 4 4 6 5 5 8 1 3 4 5 4 4 3 3 4 7 3 2 3 3 3 5 2 6 5 8 8 6 6 5 5 6
3 3 3 17 5 4 4 7 6 2 4 1 3 3 4 4 4 3 4 2 4 5 6 2 4 4 3 1 0 2 5 4 4 5 2 3 6 3 7 7 5 6 4 5 4
3 3 4 7 4 9 2 1 4 6 4 2 2 1 1 3 4 3 4 4 4 3 6 5 2 5 2 1 2 5 5 4 3 3 6 6 5 3 4 5 5 6 5 4 3
2 2 3 3 2 4 4 3 2 3 3 3 5 3 3 3 3 4 3 2 3 3 5 3 2 5 6 4 4 5 6 6 5 3 4 6 4 4 7 6 5 5 5 5 4
3 2 1 3 7 7 2 1 3 5 3 3 2 2 5 4 3 3 3 3 3 4 3 3 4 2 1 3 3 4 6 11 15 7 7 5 9 5 7 7 5 4 4 4 4
3 3 1 0 1 8 8 4 8 4 4 2 2 6 3 6 6 7 7 5 4 4 3 1 3 2 2 4 3 5 8 8 14 16 8 5 18 9 3 2 2 5 4 3 4
5 2 1 1 1 3 3 5 5 6 4 3 6 4 3 4 4 1 3 5 7 6 4 4 5 3 3 1 1 6 12 14 7 4 15 13 9 3 3 3 4 2 0 1 5
Wind_Direction
292 290 290 290 295 306 314 316 319 323 327 321 308 293 287 283 286 254 232 226 200 248 206 141 149 126 82 31 2 99 76 223 252 201 205 353 30 347 298 291 357 15 166 247 168
289 284 282 283 282 299 301 312 313 315 319 318 313 300 299 297 285 252 233 204 221 210 178 152 176 135 44 201 305 117 143 221 233 300 227 320 27 319 319 289 288 252 18 128 162
286 283 280 279 280 284 298 305 308 310 311 315 310 298 289 295 298 230 198 199 199 190 172 165 229 162 155 151 204 180 207 216 221 169 180 239 287 302 294 293 231 219 179 155 173
279 276 273 270 277 282 288 296 303 307 308 313 310 293 264 228 236 190 176 178 187 191 163 151 133 142 202 198 210 205 234 242 267 61 258 245 269 298 227 234 89 47 191 171 185
272 266 265 265 264 277 288 290 299 302 301 302 300 286 224 221 253 184 170 175 173 175 186 173 162 172 190 202 204 218 275 303 264 288 255 248 235 236 264 260 266 262 171 199 210
265 258 258 258 255 268 274 284 294 296 294 294 275 244 248 242 186 180 176 172 174 183 197 177 202 194 209 229 188 206 271 272 282 264 252 236 269 135 270 314 319 304 242 212 208
259 254 252 252 249 262 267 277 286 291 284 269 248 234 247 245 206 177 179 188 181 181 164 156 156 182 154 275 345 351 311 326 247 278 210 152 287 228 259 304 270 292 288 254 229
251 249 250 249 248 251 259 273 286 287 276 246 225 204 245 201 176 180 180 167 161 155 146 141 142 135 162 209 25 6 47 330 298 122 291 122 266 269 267 143 312 312 319 288 261
249 247 250 251 249 249 251 266 284 287 249 204 207 201 255 170 184 190 183 159 145 129 114 122 109 136 52 101 11 330 225 208 304 111 132 170 264 270 300 332 309 303 308 318 318
247 247 253 249 240 237 240 244 255 266 204 180 258 280 195 211 161 179 184 172 148 128 73 91 66 103 64 127 218 197 210 228 229 357 333 268 265 282 290 304 294 341 15 29 41
58 58 134 262 251 228 228 181 175 208 215 201 184 227 129 130 134 166 159 144 122 134 164 203 134 206 206 204 149 148 184 226 256 110 295 236 270 287 301 3 69 59 58 55 34
343 346 328 21 315 256 215 203 238 139 242 231 239 237 155 167 122 188 164 155 168 186 132 84 228 220 195 197 194 186 190 246 284 47 352 333 291 298 360 24 93 106 84 82 96
22 8 350 332 341 264 225 228 213 169 230 219 191 202 179 164 191 188 163 171 173 170 188 172 254 150 154 161 160 191 187 202 210 331 12 338 307 333 49 87 74 51 79 74 109
359 357 349 341 312 271 234 239 220 186 232 212 197 209 155 140 225 168 180 166 195 194 166 229 204 161 164 188 140 194 156 120 97 63 235 11 281 281 170 177 285 120 122 125 131
328 332 333 341 295 273 297 226 209 125 243 118 144 131 150 165 135 219 159 125 173 179 137 219 167 163 159 186 141 200 126 112 113 92 49 339 88 270 175 216 250 244 224 299 274
294 313 316 309 242 247 266 211 163 201 238 186 131 169 136 148 125 129 152 58 120 117 48 127 63 119 151 92 105 137 94 65 58 90 328 232 149 254 206 195 209 236 277 304 306
293 301 296 258 231 250 243 242 208 221 161 187 183 169 169 154 136 155 165 174 166 142 177 110 116 47 112 96 72 85 100 1 345 358 219 290 135 253 228 208 198 238 299 306 309
290 300 277 255 254 255 177 241 239 190 201 134 133 145 187 145 177 168 139 190 243 117 123 156 236 170 167 173 173 181 157 168 205 196 257 347 232 257 220 245 263 264 264 295 335
292 291 271 263 229 201 163 226 244 220 175 135 133 129 209 201 140 148 181 194 199 189 157 136 135 72 55 33 103 189 183 146 101 34 72 231 285 280 142 339 332 341 350 333 326
290 282 260 260 196 181 214 225 231 279 308 110 144 160 176 194 144 175 173 196 188 187 155 181 110 183 148 116 30 138 159 81 2 140 249 281 276 232 215 232 297 316 313 318 325
262 259 264 194 175 200 225 202 207 217 295 130 230 164 170 178 161 183 180 18 125 120 109 129 100 127 117 205 175 151 155 70 113 134 170 248 260 214 179 188 211 261 276 287 307
232 242 199 158 183 218 236 179 152 221 289 136 173 158 166 152 135 164 156 70 143 147 145 149 107 144 211 240 158 188 188 149 134 229 212 161 272 203 178 195 198 264 281 278 273
221 236 207 211 207 226 278 257 174 167 207 189 117 14 154 125 123 124 109 19 113 93 151 173 168 123 129 174 210 218 182 143 134 93 202 151 258 336 280 288 244 246 267 271 294
241 220 194 199 268 191 205 262 146 234 167 175 151 90 78 73 42 126 113 66 38 102 113 90 129 167 188 184 137 189 186 172 139 142 189 226 268 281 255 237 282 258 258 262 279
216 244 228 197 224 243 178 195 175 190 182 149 100 184 171 122 108 122 110 101 46 138 67 112 177 105 14 85 144 182 187 194 210 200 186 235 211 230 219 223 233 234 279 288 291
188 209 230 138 267 207 220 200 217 163 168 188 196 180 145 157 177 185 142 172 173 137 131 27 125 95 331 2 79 246 240 226 222 235 254 237 280 206 235 261 259 261 265 271 282
203 261 222 304 165 180 228 184 209 157 209 171 182 144 134 179 136 151 121 140 151 141 142 143 136 104 254 56 96 301 227 199 214 241 218 232 231 189 239 245 251 346 35 312 290
Height
819 819 816 818 815 814 812 813 812 810 808 807 808 806 804 803 802 800 799 798 797 797 797 797 798 799 800 801 801 803 821 823 804 799 793 794 791 787 785 785 783 785 784 782 785
819 817 816 815 814 813 811 809 810 809 807 806 805 805 804 803 800 799 796 796 796 797 797 797 798 798 803 802 804 810 824 811 797 793 794 794 794 793 789 787 787 784 784 784 786
817 816 815 813 812 811 811 808 808 807 805 804 804 804 803 802 802 791 792 794 796 796 796 797 799 799 803 802 803 807 811 800 792 793 793 793 793 793 790 789 786 785 785 787 789
814 813 813 810 810 811 809 808 805 804 806 802 803 803 802 803 804 789 790 792 795 796 795 796 798 802 804 805 800 804 798 797 793 793 793 793 791 793 791 784 780 782 781 784 787
809 809 809 809 806 807 809 805 805 803 801 802 801 803 802 803 795 789 790 792 793 795 796 795 798 798 801 800 797 801 796 795 793 795 794 792 793 793 787 780 780 781 783 785 783
804 803 804 804 804 804 804 804 803 800 799 800 801 799 803 803 789 790 790 791 792 794 795 795 796 797 797 798 798 796 796 797 793 791 791 791 792 792 779 778 778 777 778 780 780
798 798 799 800 800 800 800 800 799 798 797 798 799 800 799 793 790 790 791 791 791 791 793 795 795 798 797 797 798 798 801 797 791 789 790 789 792 791 778 779 779 779 779 779 778
791 793 794 794 796 795 796 796 797 794 795 795 798 799 795 787 789 790 791 791 791 791 791 793 795 797 797 797 798 801 805 806 786 791 791 792 797 781 777 775 774 776 778 777 776
786 788 789 790 791 791 791 792 793 793 793 794 796 797 790 786 786 788 789 790 791 792 792 792 794 799 800 807 812 808 810 811 793 787 792 793 794 781 778 781 783 781 780 780 777
782 783 784 783 784 786 786 788 790 790 792 794 794 798 787 781 780 783 787 789 791 793 794 794 800 806 812 813 815 805 809 799 794 794 792 796 800 791 783 784 785 788 791 787 785
782 781 779 780 780 781 784 786 790 791 788 779 777 777 776 778 780 782 784 788 790 792 796 795 803 803 795 797 790 792 794 795 796 795 794 799 802 795 787 786 792 794 794 793 792
786 782 782 779 779 780 780 778 775 773 775 772 773 773 773 774 780 782 784 786 790 792 793 800 800 786 789 793 796 795 798 803 799 797 798 801 800 794 796 795 793 793 794 793 792
783 783 783 781 776 779 776 774 774 772 773 764 764 767 768 772 773 778 781 783 784 788 790 792 780 781 784 790 795 797 800 799 801 806 801 809 803 799 795 795 795 795 793 793 792
786 784 784 781 779 777 773 772 773 772 771 759 759 757 764 766 773 772 774 778 781 782 787 787 780 781 784 787 795 800 799 801 805 824 817 811 823 797 794 795 793 794 796 794 793
785 782 781 782 780 776 772 771 770 771 755 750 756 756 758 759 768 775 774 775 778 778 784 781 785 784 790 785 789 800 802 804 810 829 842 818 850 801 796 789 787 791 792 792 792
782 778 778 778 775 772 769 770 770 768 744 756 756 759 760 761 767 772 773 773 773 777 780 783 782 785 787 790 794 801 806 809 818 829 837 828 826 798 801 798 788 792 792 794 794
777 775 774 776 770 768 768 769 763 747 749 755 758 759 757 762 767 768 774 777 776 789 789 785 788 790 788 796 798 807 809 849 843 844 836 818 821 792 790 794 794 796 797 796 792
771 770 768 767 766 765 769 768 752 739 746 740 748 757 756 755 761 767 774 775 771 776 787 789 800 794 793 795 798 804 807 816 825 836 830 815 828 789 800 804 811 806 804 794 791
767 765 760 755 760 762 765 758 747 743 732 741 747 754 755 751 755 759 766 768 761 765 771 789 792 797 799 799 798 803 810 807 832 864 841 829 801 785 787 802 805 802 795 794 794
763 762 752 751 754 760 757 744 742 747 732 736 739 745 753 757 755 754 760 752 755 757 758 772 789 794 801 800 800 797 801 813 838 851 843 827 821 794 802 807 801 804 798 796 794
763 759 747 748 753 754 744 740 743 739 738 737 738 740 743 750 745 751 749 752 751 757 758 770 782 801 802 811 801 800 809 809 812 831 842 848 814 807 799 803 804 801 796 797 795
759 760 746 746 750 748 738 740 737 739 741 733 735 741 739 742 744 744 747 749 750 754 760 766 783 795 801 807 805 807 808 807 821 830 846 840 809 809 800 804 806 797 793 795 793
754 749 745 746 743 742 739 735 737 738 739 734 734 739 748 746 743 748 754 756 754 760 764 767 782 792 796 802 804 795 797 811 826 828 827 823 804 812 820 809 797 798 796 793 791
750 746 744 744 741 744 740 737 733 740 735 736 738 742 748 755 751 754 755 760 760 761 760 764 781 782 769 784 805 799 796 799 805 826 840 816 815 810 806 802 798 797 794 795 793
746 740 740 739 740 738 737 737 734 735 736 738 737 742 743 752 754 761 757 762 764 761 768 773 781 791 797 782 788 818 799 792 784 808 792 807 800 802 797 795 795 795 796 793 792
740 740 743 738 739 739 737 738 729 736 736 736 744 740 746 748 744 754 752 758 758 767 772 776 784 802 800 821 831 796 809 807 788 781 802 815 786 788 796 806 798 797 796 795 794
736 735 735 740 740 736 736 730 729 730 731 729 735 744 746 746 745 746 747 750 755 766 775 778 791 799 801 823 813 807 790 793 795 807 769 777 774 798 796 799 797 794 793 787 790